Regional Weather Roundup
Issued by NWS

Home | Current Version | Previous Version | Text Only | Print | Product List | Glossary Off
Versions: 1 2 3 4 5 6 7 8 9 10 11 12 13 14 15 16 17 18 19 20 21 22 23 24 25 26 27 28 29 30 31 32 33 34 35 36 37 38 39 40 41 42 43 44 45 46 47 48 49 50

000
ASUS45 KCYS 192010
RWRWY

WYOMING REGIONAL WEATHER ROUNDUP
NATIONAL WEATHER SERVICE CHEYENNE WY
200 PM MDT FRI SEP 19 2014

NOTE:  "FAIR" INDICATES FEW OR NO CLOUDS BELOW 12,000 FEET
WITH NO SIGNIFICANT WEATHER AND/OR OBSTRUCTIONS TO VISIBILITY.

WYZ001-192100-
YELLOWSTONE NATIONAL PARK

CITY           SKY/WX    TMP DP  RH WIND       PRES   REMARKS
LK YELLOWSTONE   N/A     60  40  47 VRB6      30.22F
W YELLOWSTONE  NOT AVBL

$$
WYZ002>013-054>058-071-098>099-192100-
NORTHERN WYOMING

CITY           SKY/WX    TMP DP  RH WIND       PRES   REMARKS
JACKSON        SUNNY     72  37  28 CALM      30.15
CODY             N/A    N/A N/A N/A MISG        N/A
GREYBULL       SUNNY     79  49  34 CALM      29.92F
WORLAND        SUNNY     80  47  31 CALM      29.93F
SHERIDAN       SUNNY     77  50  38 N9G23     29.92F
BUFFALO        MOSUNNY   74  47  38 NE9       29.98S
GILLETTE       SUNNY     77  47  34 NW8G18    29.93S
HULETT         FAIR      77  46  33 MISG      29.92
NEWCASTLE      FAIR      79  41  25 NW16      29.91

$$
WYZ014>020-022>026-101>103-192100-
CENTRAL WYOMING

CITY           SKY/WX    TMP DP  RH WIND       PRES   REMARKS
BIG PINEY      SUNNY     73  31  21 NW14      30.18F
PINEDALE       CLEAR     68  32  26 W14G24    30.20F
DUBOIS         FAIR      68  32  26 NW18G26   30.15S
LANDER         SUNNY     80  39  23 N10       30.00F
RIVERTON       SUNNY     80  35  19 VRB6      30.01F
CASPER         SUNNY     82  34  17 W13G22    29.99F
DOUGLAS        SUNNY     83  43  24 W18G26    29.96F

$$
WYZ021-027>030-104>119-192100-
SOUTHERN WYOMING

CITY           SKY/WX    TMP DP  RH WIND       PRES   REMARKS
EVANSTON       SUNNY     73  43  33 N6        30.21F
KEMMERER       CLEAR     70  34  26 W10G22    30.22F
FORT BRIDGER   FAIR      73  42  32 N7        30.23F
ROCK SPRINGS   SUNNY     73  42  32 W10G21    30.16F
DIXON          FAIR      78  43  28 NW8       30.15F
RAWLINS        MOSUNNY   76  43  30 SW21G28   30.13F
SARATOGA       FAIR      77  41  27 W15G23    30.15F
LARAMIE        MOSUNNY   74  40  29 NW10      30.12F
CHEYENNE       MOSUNNY   85  39  19 NW10G22   30.03F
TORRINGTON     SUNNY     86  49  27 VRB6      29.89F
PINE BLUFFS    FAIR      88  39  18 N10G20    29.96F

$$


USA.gov is the U.S. government's official web portal to all federal, state and local government web resources and services.